Temp
9 9 9 9 10 10 11 11 11 11 11 12 12 12 12 13 14 15 16 15 13 14 14 14 15 15 15 16 16 17 16 16 16 18 20 23 23 26 28 27 27 27 27 25 24
9 9 9 10 10 10 10 10 10 10 11 11 11 11 12 12 14 15 14 14 14 14 13 13 14 14 14 16 16 15 15 17 18 20 21 23 23 24 25 26 26 27 24 24 23
9 9 9 9 10 10 10 10 10 10 10 10 10 10 10 11 12 13 13 13 13 13 13 13 13 13 13 14 16 17 15 17 19 21 21 21 22 24 24 21 26 26 24 24 23
8 8 8 9 9 9 9 9 9 8 8 8 9 8 9 10 13 14 12 12 11 12 12 12 13 13 13 13 16 15 18 18 18 20 20 20 22 22 23 24 26 26 25 24 25
8 8 7 8 8 8 8 8 8 8 8 8 7 7 8 7 11 11 10 11 11 11 12 12 12 13 13 14 15 16 17 18 19 20 20 21 21 21 22 23 25 25 24 25 24
7 7 7 7 7 8 8 8 8 9 9 8 7 7 5 4 9 10 10 10 11 11 11 11 12 13 13 15 15 17 17 18 19 20 20 21 21 21 22 23 24 24 24 24 24
6 7 7 7 7 7 8 8 8 9 9 7 7 6 4 8 9 10 9 9 10 10 9 10 10 11 13 13 16 17 16 17 18 19 20 21 19 20 22 23 23 23 23 23 23
6 6 6 6 7 7 8 9 9 8 8 7 6 5 4 8 9 9 9 10 10 10 10 10 10 10 10 13 13 13 14 14 17 18 19 20 19 21 22 23 22 23 23 23 23
6 6 6 6 7 7 8 9 8 7 8 6 6 5 5 9 9 9 9 9 9 9 9 10 10 10 10 10 11 12 12 13 16 18 19 18 19 21 22 22 21 22 22 23 23
6 5 6 6 7 7 7 9 8 8 7 6 6 5 7 8 9 9 9 9 9 9 9 9 9 8 8 8 8 11 12 12 14 16 18 18 18 18 21 22 21 22 22 22 22
5 5 6 6 6 6 6 7 6 7 6 6 7 5 7 10 9 9 9 9 9 8 7 9 7 6 8 9 10 11 12 13 15 17 17 18 19 19 19 21 20 21 21 22 22
5 6 6 6 5 5 5 5 4 4 2 7 7 7 9 9 8 9 10 9 9 8 8 8 6 8 9 9 9 10 10 12 15 17 17 18 17 19 18 19 21 21 21 23 23
5 6 5 5 5 5 5 4 4 3 2 6 9 9 10 10 9 10 10 9 8 7 7 7 6 9 9 7 7 10 11 12 13 13 13 14 15 15 17 18 20 22 22 23 23
4 4 5 5 5 5 4 4 3 3 -0 9 10 11 11 11 11 10 9 9 7 6 7 4 6 5 6 7 7 9 11 13 14 14 12 14 11 14 16 17 17 19 21 21 23
3 3 4 4 5 4 4 4 3 3 6 12 11 11 11 10 10 10 9 8 7 6 4 6 7 5 4 7 10 11 12 12 14 13 10 12 10 11 14 15 16 16 19 20 22
2 3 3 3 3 3 4 4 3 3 7 11 10 10 9 10 10 10 9 10 10 8 7 6 8 7 6 9 11 13 12 13 13 10 8 11 11 11 13 15 16 17 19 20 21
2 3 3 3 3 3 4 4 3 4 10 9 8 9 9 9 9 9 7 8 8 7 8 10 11 11 10 10 12 12 12 10 8 8 8 13 11 12 15 17 17 18 19 20 21
3 3 3 3 3 4 4 2 4 8 8 9 9 9 8 8 8 8 6 6 8 7 6 8 7 9 10 10 12 12 11 8 8 8 10 14 11 12 15 16 17 18 18 18 18
3 3 3 4 4 3 3 1 6 7 8 8 9 7 7 8 6 5 4 6 8 8 6 7 8 9 11 10 10 12 11 12 11 12 10 12 14 15 16 17 18 18 17 17 14
3 3 4 4 4 4 1 5 8 9 9 8 7 8 6 7 6 2 6 6 7 8 8 8 7 9 8 9 14 13 13 9 9 9 10 11 13 14 15 15 14 11 12 13 12
3 3 4 5 4 3 -1 5 8 8 9 8 8 7 7 7 7 6 6 8 8 8 8 8 8 9 9 10 12 12 12 12 9 11 10 9 10 14 14 15 12 10 9 9 9
3 2 4 5 3 4 1 8 8 8 9 9 8 8 7 7 7 7 6 8 9 8 6 8 6 7 9 11 13 12 11 13 10 11 12 10 9 12 11 12 11 10 9 7 7
2 5 5 5 2 2 7 8 9 8 8 8 8 8 7 6 6 7 7 9 8 8 7 7 6 6 8 10 10 10 12 14 13 12 12 10 10 11 10 9 9 8 7 6 6
3 0 5 5 6 6 6 7 7 8 8 9 8 7 7 6 7 6 7 8 8 8 8 8 7 5 5 5 5 7 10 12 14 11 12 11 10 8 9 8 7 7 6 5 4
2 1 5 1 3 5 6 6 6 7 8 8 8 7 6 4 5 5 6 6 7 8 7 7 6 7 8 9 5 6 9 10 10 12 12 11 10 7 6 5 5 5 4 3 2
3 3 4 5 6 6 5 6 7 7 6 6 6 6 5 5 6 4 5 5 5 7 6 6 6 6 7 10 9 10 9 10 10 10 11 10 8 8 6 5 4 4 3 2 1
2 3 3 4 4 4 5 7 7 7 7 7 6 5 5 6 6 6 6 6 6 6 5 6 6 6 7 10 10 7 6 7 7 7 10 8 7 6 4 4 2 2 1 0 -1
Height
1512 1511 1510 1509 1508 1507 1506 1504 1504 1503 1502 1500 1498 1496 1493 1491 1488 1486 1483 1483 1484 1484 1485 1486 1487 1488 1489 1489 1490 1490 1491 1474 1478 1478 1469 1460 1456 1457 1452 1450 1452 1455 1456 1458 1464
1509 1509 1508 1507 1506 1506 1504 1503 1502 1501 1500 1498 1496 1494 1491 1489 1485 1481 1483 1481 1482 1483 1483 1484 1483 1485 1485 1485 1485 1483 1478 1460 1467 1463 1461 1457 1453 1452 1455 1450 1450 1452 1455 1457 1463
1507 1506 1506 1505 1504 1504 1503 1502 1501 1500 1498 1496 1493 1490 1488 1487 1482 1481 1481 1481 1481 1481 1481 1481 1482 1484 1482 1481 1478 1474 1453 1467 1461 1462 1460 1456 1451 1448 1453 1452 1446 1448 1449 1453 1459
1505 1505 1505 1504 1503 1501 1501 1500 1498 1496 1494 1492 1489 1486 1485 1485 1485 1479 1479 1479 1479 1479 1479 1480 1481 1481 1477 1476 1474 1470 1451 1462 1459 1460 1456 1449 1449 1443 1445 1446 1444 1444 1445 1446 1448
1504 1503 1503 1502 1500 1499 1498 1496 1495 1493 1491 1489 1487 1484 1483 1483 1476 1477 1476 1475 1474 1475 1476 1477 1478 1479 1470 1465 1467 1458 1458 1456 1455 1454 1447 1446 1441 1441 1434 1441 1442 1441 1444 1443 1444
1502 1502 1501 1500 1498 1496 1495 1493 1492 1491 1489 1487 1484 1482 1482 1482 1472 1472 1472 1473 1473 1471 1470 1473 1473 1475 1465 1462 1461 1454 1450 1447 1448 1438 1438 1440 1434 1439 1425 1435 1437 1437 1439 1443 1442
1499 1500 1499 1497 1495 1494 1492 1491 1490 1488 1487 1485 1482 1481 1480 1474 1471 1471 1470 1471 1471 1470 1467 1468 1469 1470 1465 1459 1454 1448 1448 1441 1431 1421 1428 1438 1432 1420 1426 1430 1430 1432 1435 1438 1444
1497 1497 1497 1496 1493 1492 1490 1488 1487 1485 1484 1482 1482 1479 1473 1469 1467 1468 1469 1468 1467 1468 1466 1466 1466 1462 1463 1458 1450 1452 1448 1435 1395 1420 1424 1432 1425 1407 1422 1426 1424 1426 1430 1432 1435
1496 1495 1495 1494 1491 1489 1487 1484 1482 1482 1481 1480 1480 1479 1471 1469 1467 1467 1467 1464 1462 1461 1460 1459 1462 1457 1456 1454 1447 1441 1434 1412 1402 1415 1420 1422 1412 1407 1416 1419 1419 1421 1424 1427 1429
1493 1494 1493 1492 1489 1488 1485 1479 1478 1480 1478 1479 1480 1482 1469 1466 1463 1462 1460 1457 1455 1453 1452 1455 1457 1453 1449 1448 1439 1421 1429 1428 1419 1409 1415 1413 1407 1407 1407 1412 1413 1416 1418 1419 1421
1491 1491 1490 1491 1489 1487 1483 1476 1480 1480 1477 1477 1474 1476 1467 1462 1459 1458 1453 1450 1451 1450 1447 1448 1451 1445 1440 1437 1436 1433 1429 1420 1411 1405 1406 1402 1399 1401 1403 1408 1406 1407 1410 1411 1412
1489 1488 1489 1489 1489 1487 1485 1482 1487 1487 1478 1469 1468 1468 1463 1459 1456 1453 1451 1449 1445 1440 1439 1440 1435 1432 1434 1434 1433 1430 1428 1419 1405 1400 1399 1395 1400 1393 1397 1400 1396 1400 1402 1403 1406
1486 1486 1487 1487 1486 1487 1487 1487 1485 1484 1483 1468 1465 1464 1462 1459 1451 1446 1446 1441 1438 1435 1436 1434 1428 1432 1430 1430 1430 1417 1420 1419 1412 1407 1402 1404 1402 1399 1389 1392 1392 1391 1395 1398 1400
1485 1484 1485 1485 1486 1485 1485 1484 1483 1482 1490 1465 1463 1462 1460 1454 1448 1446 1443 1442 1438 1436 1433 1433 1423 1429 1425 1416 1420 1408 1412 1410 1405 1409 1416 1407 1421 1399 1392 1391 1390 1389 1391 1394 1396
1482 1484 1484 1482 1485 1484 1485 1481 1482 1482 1479 1460 1460 1461 1458 1456 1450 1442 1437 1433 1431 1431 1437 1422 1414 1415 1408 1400 1401 1396 1401 1404 1396 1404 1415 1416 1427 1405 1392 1392 1388 1387 1389 1391 1394
1481 1481 1483 1483 1483 1486 1481 1480 1480 1485 1474 1460 1461 1459 1455 1452 1449 1441 1432 1424 1417 1422 1423 1414 1401 1407 1399 1394 1392 1387 1398 1404 1393 1404 1425 1413 1418 1404 1395 1385 1384 1383 1384 1387 1392
1480 1479 1481 1481 1481 1483 1481 1480 1485 1484 1461 1466 1465 1459 1451 1452 1446 1441 1433 1428 1424 1425 1415 1399 1391 1388 1384 1383 1377 1383 1397 1410 1417 1419 1422 1396 1410 1391 1379 1375 1378 1379 1382 1385 1388
1478 1478 1479 1479 1480 1481 1480 1483 1484 1470 1470 1469 1463 1456 1456 1450 1445 1439 1437 1431 1427 1428 1424 1408 1395 1392 1378 1383 1373 1378 1388 1411 1415 1416 1412 1393 1402 1385 1370 1369 1373 1375 1384 1386 1389
1478 1477 1477 1478 1479 1480 1481 1493 1476 1473 1472 1471 1463 1461 1461 1453 1450 1444 1444 1441 1435 1433 1435 1416 1399 1387 1383 1381 1381 1375 1387 1383 1392 1388 1401 1393 1382 1370 1363 1372 1373 1371 1380 1391 1395
1476 1474 1476 1477 1479 1479 1483 1477 1471 1471 1474 1470 1466 1462 1465 1456 1450 1453 1440 1441 1436 1433 1428 1418 1408 1399 1391 1381 1365 1368 1374 1397 1398 1405 1403 1393 1384 1382 1376 1376 1386 1387 1392 1401 1400
1474 1475 1477 1477 1478 1479 1489 1475 1471 1473 1472 1470 1467 1464 1462 1457 1451 1449 1444 1439 1435 1431 1426 1420 1415 1400 1394 1388 1380 1380 1383 1387 1406 1396 1400 1405 1403 1383 1382 1377 1391 1395 1401 1416 1413
1473 1474 1475 1476 1479 1477 1482 1472 1473 1472 1468 1466 1465 1462 1462 1458 1451 1449 1448 1443 1437 1431 1430 1424 1423 1411 1395 1389 1383 1382 1385 1385 1402 1400 1389 1397 1411 1395 1392 1397 1393 1401 1408 1420 1419
1471 1471 1474 1476 1481 1478 1470 1470 1469 1468 1468 1467 1466 1462 1463 1460 1459 1450 1446 1441 1439 1437 1435 1427 1422 1419 1399 1389 1389 1395 1386 1379 1383 1388 1391 1400 1404 1401 1401 1406 1412 1413 1418 1424 1422
1471 1475 1474 1474 1473 1474 1474 1470 1469 1465 1466 1467 1464 1464 1464 1462 1458 1454 1446 1441 1440 1438 1433 1428 1424 1430 1436 1430 1428 1412 1395 1383 1379 1393 1391 1396 1401 1412 1409 1417 1415 1418 1423 1426 1422
1471 1472 1471 1477 1475 1473 1475 1473 1469 1465 1466 1467 1465 1465 1467 1467 1461 1458 1450 1439 1440 1435 1433 1431 1432 1425 1419 1413 1421 1417 1399 1395 1391 1387 1389 1398 1404 1415 1421 1419 1424 1426 1428 1428 1428
1472 1473 1473 1473 1470 1472 1473 1470 1467 1467 1471 1470 1468 1467 1466 1467 1462 1462 1455 1449 1444 1436 1437 1433 1433 1427 1418 1401 1402 1401 1401 1396 1394 1395 1398 1401 1413 1418 1425 1426 1428 1424 1429 1428 1425
1473 1474 1475 1474 1469 1470 1472 1469 1468 1468 1470 1469 1468 1467 1465 1462 1459 1454 1449 1443 1440 1440 1442 1438 1434 1432 1419 1402 1403 1410 1412 1408 1418 1415 1399 1409 1420 1426 1431 1432 1433 1433 1432 1428 1432
Wind_Speed
12 12 12 10 9 9 9 9 10 11 12 14 16 18 20 21 22 22 20 13 11 15 19 19 17 17 13 18 22 24 11 18 16 17 19 28 18 18 8 6 6 8 11 15 33
11 10 9 9 8 7 8 9 11 13 14 16 17 18 19 20 22 6 10 9 9 12 21 21 24 22 19 17 13 8 11 22 9 15 18 24 26 23 7 8 7 8 25 29 28
9 8 7 7 6 7 8 10 11 13 15 16 18 21 22 22 11 2 5 11 14 8 8 12 16 17 22 26 27 20 28 11 17 28 34 27 28 35 5 7 17 21 26 22 23
7 6 6 6 7 8 10 12 14 16 17 19 20 23 22 13 1 4 18 18 17 14 16 13 11 7 5 10 21 21 31 24 30 32 30 22 29 17 15 15 18 20 23 27 23
7 6 5 6 8 10 12 14 16 18 19 20 21 22 21 7 15 8 13 8 13 17 20 20 24 22 17 9 22 27 19 31 33 36 44 41 28 20 29 24 21 13 9 28 29
7 6 6 8 10 12 14 16 17 18 18 20 21 21 13 7 5 10 14 17 19 19 22 21 23 26 29 25 20 19 28 30 32 40 40 29 26 20 35 24 23 20 18 10 21
6 6 8 9 12 13 15 16 16 17 16 15 17 16 13 22 7 6 14 20 19 18 25 30 30 27 16 21 25 32 22 21 29 38 29 27 19 31 24 27 20 22 26 22 16
6 8 9 11 12 14 16 15 14 13 10 10 11 11 10 10 8 10 17 23 21 22 25 22 27 35 26 31 38 26 16 22 41 24 22 20 30 27 26 26 29 31 28 30 30
8 8 10 11 13 15 16 15 10 9 8 8 10 7 13 5 7 16 17 23 27 28 26 27 20 25 25 18 18 22 25 33 28 12 17 19 28 16 24 28 25 27 32 34 36
8 9 10 12 12 13 14 11 5 5 3 9 11 11 11 15 21 20 23 31 31 31 28 23 18 9 14 15 21 26 25 15 17 14 19 21 28 7 19 20 27 28 32 35 39
9 9 9 9 9 10 16 10 10 3 14 9 14 11 26 22 24 23 31 28 20 19 17 19 13 15 22 23 23 23 19 21 17 15 19 27 25 18 14 23 18 23 30 34 36
9 8 7 5 6 11 13 11 10 7 11 9 9 14 17 21 23 31 25 23 17 18 11 15 22 24 22 23 25 25 24 23 17 15 18 17 8 17 9 9 29 24 25 23 29
8 7 4 1 6 9 9 9 4 11 3 11 10 9 10 14 17 24 26 12 9 6 9 16 20 19 20 21 27 27 24 22 17 2 5 8 7 9 5 7 19 35 32 26 23
7 3 1 1 5 5 8 8 8 11 2 5 3 3 15 24 4 20 19 5 1 3 5 6 12 17 24 29 25 23 23 25 23 18 4 3 4 7 11 9 6 9 9 13 23
2 1 4 7 5 10 6 14 4 5 4 3 6 8 26 5 20 9 23 8 9 8 5 11 17 22 18 29 24 22 24 24 25 9 6 5 3 6 6 6 12 9 18 16 16
1 1 6 4 6 4 10 4 4 1 2 3 11 14 10 7 13 20 16 8 18 7 13 20 17 13 12 18 20 26 22 13 3 6 2 8 6 5 5 10 8 13 20 21 13
3 1 3 5 4 10 4 4 3 2 9 9 10 13 10 7 7 12 17 13 12 7 11 18 20 13 13 14 20 22 14 6 1 2 4 12 7 14 8 11 18 18 20 9 26
1 3 3 5 3 4 6 3 1 7 8 11 12 13 7 13 5 10 13 15 15 17 10 9 19 12 10 3 8 12 8 5 2 5 4 4 7 7 14 19 24 24 21 31 32
6 6 4 6 7 2 3 2 1 3 8 8 13 7 7 11 5 6 4 4 10 13 11 8 10 22 11 6 10 9 11 3 0 2 3 5 4 7 13 4 12 23 30 24 30
6 4 4 1 2 4 1 3 4 7 5 9 8 5 7 10 9 5 7 1 10 8 15 7 8 13 18 12 2 11 6 4 3 1 4 4 4 3 8 14 12 19 22 24 35
8 3 6 5 2 1 2 2 3 6 6 5 7 5 9 11 8 9 6 3 7 6 8 9 5 5 9 4 5 3 5 4 1 4 1 2 3 7 9 11 18 17 32 22 27
1 2 3 6 1 3 1 1 2 5 12 4 4 4 7 12 5 6 6 8 20 11 9 6 3 6 6 17 8 13 6 5 3 4 2 6 3 8 18 11 19 24 28 20 24
2 5 4 8 1 2 2 4 3 2 4 2 4 4 9 7 6 8 8 15 24 14 11 6 4 5 10 9 11 3 11 11 12 2 1 2 4 9 19 19 22 23 25 19 22
3 2 4 6 6 2 4 2 4 8 4 7 5 6 6 7 10 10 11 12 23 22 18 7 3 3 1 6 6 10 16 15 6 2 3 3 8 13 16 13 14 23 21 19 24
2 2 1 1 1 4 4 5 9 4 6 12 5 9 7 5 10 6 18 21 15 9 8 6 4 8 13 13 9 13 10 12 9 8 2 5 13 13 11 13 14 15 16 18 19
1 2 5 7 6 4 1 3 7 8 7 6 6 9 8 8 9 13 15 15 9 3 9 7 3 9 6 11 9 6 8 9 7 12 11 11 10 16 16 16 17 22 17 19 24
1 3 4 6 4 2 4 1 4 3 4 11 6 5 8 7 17 24 28 31 21 15 12 4 4 5 4 16 6 6 15 9 11 18 4 4 9 12 12 13 17 17 19 22 19
Wind_Direction
283 284 287 292 299 307 314 318 323 330 331 328 327 328 329 329 323 320 309 297 295 287 288 284 276 266 256 256 230 246 247 245 236 244 260 281 290 290 231 199 224 253 186 144 159
282 285 289 295 303 308 313 323 331 331 327 325 325 325 329 331 326 3 19 359 315 287 281 276 274 268 274 254 231 222 240 238 229 240 250 263 273 278 238 217 220 241 140 144 151
277 277 279 288 300 309 316 324 324 324 327 329 330 329 336 345 339 107 18 342 336 328 304 274 280 269 263 261 238 243 245 249 246 237 255 261 269 277 239 251 201 205 154 162 158
267 274 285 299 309 314 324 329 331 333 332 330 330 324 333 344 28 224 319 328 320 287 296 304 278 248 262 241 248 244 249 244 256 267 272 265 274 284 275 234 210 209 197 177 185
265 275 290 302 311 322 330 331 334 329 327 325 321 317 329 296 278 306 305 292 294 304 296 283 283 287 244 247 241 255 260 251 254 249 250 263 259 262 270 275 277 267 304 198 189
263 277 295 307 317 327 331 332 328 321 319 317 312 311 317 284 276 281 285 305 290 276 283 285 272 275 285 272 247 253 259 261 259 246 249 245 256 257 260 268 269 270 271 267 208
264 288 303 314 321 326 326 325 319 312 314 314 306 307 289 272 327 9 5 330 331 326 297 283 290 287 275 294 282 260 264 265 251 249 248 253 247 238 244 260 259 261 262 261 244
276 293 304 312 319 324 321 320 314 309 318 311 305 305 263 330 352 320 320 307 303 297 300 299 285 283 277 273 267 280 281 254 248 244 248 240 250 241 232 243 249 256 256 256 258
283 297 304 311 321 324 325 323 321 297 321 297 309 306 281 356 311 295 316 313 309 292 279 286 292 283 284 274 264 243 243 240 257 240 237 231 249 226 227 226 236 239 248 248 253
283 296 304 313 329 335 345 330 331 287 352 287 277 275 254 300 313 312 306 307 297 294 285 276 276 262 263 249 240 240 250 265 257 222 244 239 248 205 197 233 241 232 237 235 235
281 289 301 322 348 14 16 32 24 344 300 255 252 272 279 319 318 308 306 307 303 288 266 259 254 243 255 257 262 275 281 253 244 254 225 230 240 234 203 224 238 231 238 229 246
275 285 299 337 51 61 42 53 11 337 313 317 268 262 284 303 283 298 323 307 294 274 267 263 242 248 257 270 264 259 264 270 256 252 251 240 266 236 189 227 232 231 240 244 244
271 278 293 27 78 58 29 33 341 306 320 292 228 244 275 292 274 323 340 320 290 298 280 274 259 274 250 273 260 238 247 262 259 299 20 358 286 283 285 313 295 224 233 243 207
271 296 309 142 114 45 59 340 345 329 39 184 249 200 322 315 301 334 330 305 309 299 301 282 283 267 264 251 254 235 240 256 250 248 210 108 280 243 232 257 285 289 234 228 219
299 329 99 79 148 72 318 324 3 346 91 50 31 330 328 30 319 332 320 219 240 211 124 249 284 280 243 237 243 231 232 249 244 231 104 144 224 264 286 282 279 284 294 285 264
261 157 141 122 64 314 313 4 54 31 87 20 7 331 325 5 331 326 345 257 252 219 222 253 262 286 258 263 239 227 232 261 268 120 168 206 183 257 211 223 265 269 268 269 247
248 227 180 177 136 296 305 19 39 51 7 5 330 315 304 341 326 360 353 8 29 330 288 281 281 243 234 243 250 216 212 197 99 131 220 173 191 240 225 215 227 240 249 197 151
201 163 118 149 8 339 42 37 6 27 31 346 315 309 355 356 298 350 4 9 19 358 322 324 317 339 353 279 282 215 175 148 168 169 169 183 220 252 227 243 263 266 141 122 114
135 108 129 40 351 88 19 77 86 13 4 316 305 20 327 329 318 0 3 1 356 359 338 310 328 330 309 2 300 150 173 201 112 128 101 212 237 311 239 307 154 118 106 102 88
166 154 171 176 6 81 88 254 34 42 347 303 354 3 332 332 345 16 348 77 321 360 324 305 298 350 320 315 306 145 149 72 16 327 221 336 198 239 27 103 68 60 64 69 75
150 153 176 239 174 109 151 238 28 333 292 291 334 333 325 333 340 332 334 282 345 311 339 320 327 278 251 302 25 46 198 103 88 262 283 1 322 19 6 126 102 75 74 57 66
280 135 152 167 128 219 207 130 169 293 309 14 279 313 344 322 326 343 321 320 3 353 345 341 292 302 281 260 273 300 184 197 205 292 263 143 202 28 66 62 89 91 81 69 60
238 138 115 171 107 262 207 283 235 209 344 359 284 13 349 343 339 310 327 307 6 357 348 320 332 331 351 357 21 148 273 206 217 149 59 16 89 70 76 60 61 69 72 57 55
8 41 159 203 241 263 28 323 297 142 248 335 314 61 336 331 338 311 315 329 342 332 319 357 331 60 242 244 266 304 322 331 176 173 203 42 109 57 70 80 62 58 61 53 47
28 257 182 232 313 34 349 303 288 23 31 350 325 31 3 331 328 331 323 324 335 328 334 15 303 322 307 299 240 257 333 352 25 359 216 111 90 113 95 70 60 71 52 47 42
110 14 340 296 142 221 181 279 31 21 6 304 350 360 344 306 317 317 319 303 294 323 352 317 293 321 327 302 240 11 0 359 34 19 93 78 81 101 93 81 51 49 35 32 27
51 355 311 296 283 131 184 333 332 316 298 338 335 301 284 324 320 294 277 271 259 272 294 274 314 329 284 324 242 51 353 9 54 30 21 67 109 94 74 64 52 39 32 31 20